GW4208 Weather Reports


time (UTC)temp
F
wind
direction
speed
knots
gust
knots
rain 1hr
in
rain 24hr
in
rain mn
in
humidity
%
barometer
mb
20260506212106 48 181 0.9 0.9 0.00 0.39 0.39 99 1008.2
20260506211602 48 184 0.9 1.7 0.00 0.39 0.39 99 1008.0
20260506211059 48 194 1.7 1.7 0.00 0.39 0.39 99 1008.2
20260506210555 48 248 2.6 2.6 0.00 0.39 0.39 99 1008.0
20260506210052 48 239 3.5 3.5 0.00 0.39 0.39 99 1007.9
20260506205549 48 206 1.7 1.7 0.07 0.39 0.39 99 1007.7
20260506205044 48 180 0.9 0.9 0.07 0.39 0.39 99 1007.5
20260506204543 48 230 1.7 2.6 0.00 0.38 0.38 99 1007.6
20260506204039 48 180 0.9 1.7 0.00 0.38 0.38 99 1007.3
20260506203538 48 248 1.7 1.7 0.00 0.38 0.38 99 1007.5
20260506203034 48 179 0.9 0.9 0.05 0.38 0.38 99 1007.6
20260506202531 48 302 2.6 5.2 0.05 0.38 0.38 99 1007.3
20260506202027 49 86 2.6 2.6 0.00 0.37 0.37 99 1007.4
20260506201525 49 161 0.0 0.0 0.07 0.37 0.37 99 1007.4
20260506201022 48 173 0.0 0.9 0.07 0.37 0.37 99 1007.4
20260506200518 48 138 0.9 0.9 0.00 0.36 0.36 99 1007.6
20260506200015 49 150 0.0 0.0 0.00 0.36 0.36 99 1007.4
20260506195512 48 292 0.9 1.7 0.05 0.36 0.36 99 1007.1
20260506195008 48 126 0.0 0.0 0.05 0.36 0.36 99 1007.4
20260506194506 48 147 0.0 0.0 0.00 0.35 0.35 99 1007.4
20260506194001 48 148 1.7 1.7 0.00 0.35 0.35 99 1007.6
20260506193500 48 72 0.9 1.7 0.00 0.35 0.35 99 1007.4
20260506192955 48 156 0.9 0.9 0.07 0.35 0.35 99 1007.1
20260506192453 48 158 0.0 0.9 0.07 0.35 0.35 99 1007.4
20260506191944 48 154 0.0 0.0 0.00 0.34 0.34 99 1007.3
20260506191440 48 155 0.0 0.9 0.00 0.34 0.34 99 1007.4
20260506190936 48 159 0.9 0.9 0.00 0.34 0.34 99 1007.2
20260506190433 47 177 0.0 0.0 0.00 0.34 0.34 99 1007.2
20260506185930 47 351 1.7 2.6 0.00 0.34 0.34 99 1007.0
20260506185428 47 289 1.7 1.7 0.00 0.34 0.34 99 1007.1
20260506184924 48 161 0.0 0.0 0.00 0.34 0.34 99 1007.1
20260506184421 47 85 0.9 0.9 0.00 0.34 0.34 99 1006.9
20260506183914 47 200 0.9 1.7 0.00 0.34 0.34 99 1006.9
20260506183409 47 154 0.0 0.0 0.05 0.34 0.34 99 1007.0
20260506182906 47 168 0.0 0.0 0.05 0.34 0.34 99 1006.8
20260506182403 47 25 0.9 1.7 0.00 0.33 0.33 99 1006.8
20260506181900 47 247 1.7 2.6 0.00 0.33 0.33 99 1006.8
20260506181358 47 177 0.0 0.0 0.07 0.33 0.33 99 1006.6
20260506180855 47 151 0.0 0.0 0.07 0.33 0.33 99 1006.5
20260506180351 47 140 0.0 0.9 0.00 0.32 0.32 99 1006.6
20260506175848 47 176 0.9 0.9 0.00 0.32 0.32 99 1006.7
20260506175345 47 124 0.0 0.9 0.00 0.32 0.32 99 1006.8
20260506174842 47 191 0.0 0.9 0.00 0.32 0.32 99 1006.5
20260506174339 47 66 0.9 0.9 0.00 0.32 0.32 99 1006.6
20260506173836 47 169 0.0 0.0 0.00 0.32 0.32 99 1006.7
20260506173332 47 148 0.0 0.0 0.00 0.32 0.32 99 1006.7
20260506172825 46 160 0.0 0.0 0.00 0.32 0.32 99 1006.4
20260506172321 46 169 0.0 0.0 0.00 0.32 0.32 99 1006.6
20260506171819 46 178 0.9 0.9 0.00 0.32 0.32 99 1006.8
20260506171315 46 158 0.9 0.9 0.00 0.32 0.32 99 1006.8
20260506170813 46 161 0.0 0.0 0.00 0.32 0.32 99 1006.6
20260506170309 46 204 0.9 1.7 0.00 0.32 0.32 99 1006.6
20260506165808 46 176 0.0 0.9 0.00 0.32 0.32 99 1006.8
20260506165306 46 184 0.9 0.9 0.00 0.32 0.32 99 1006.8
20260506164801 46 180 0.0 0.9 0.05 0.32 0.32 99 1006.9
20260506164258 46 162 0.0 0.0 0.05 0.32 0.32 99 1007.0
20260506163749 46 165 0.0 0.0 0.00 0.31 0.31 99 1006.9
20260506163244 46 134 0.9 0.9 0.00 0.31 0.31 99 1007.0
20260506162741 46 173 0.0 0.0 0.00 0.31 0.31 99 1006.8
20260506162238 46 143 0.0 0.9 0.00 0.31 0.31 99 1007.1
20260506161736 46 167 0.0 0.0 0.00 0.31 0.31 99 1007.0
20260506161233 46 139 0.0 0.0 0.00 0.31 0.31 99 1006.8
20260506160730 46 158 0.0 0.0 0.00 0.31 0.31 99 1006.8
20260506160226 46 134 0.9 1.7 0.00 0.31 0.31 99 1007.0
20260506155725 46 168 0.0 0.9 0.00 0.31 0.31 99 1007.5
20260506155222 46 153 0.9 0.9 0.00 0.31 0.31 99 1007.2
20260506153329 46 168 0.0 0.0 0.00 0.31 0.31 99 1007.0
20260506152826 46 167 0.0 0.0 0.07 0.31 0.31 99 1006.7
20260506152323 46 161 0.0 0.0 0.07 0.31 0.31 99 1006.6
20260506151822 46 145 0.0 0.0 0.00 0.30 0.30 99 1006.7
20260506151318 46 164 0.0 0.0 0.00 0.30 0.30 99 1006.9
20260506150815 46 160 0.0 0.0 0.00 0.30 0.30 99 1007.0
20260506150312 45 161 0.0 0.9 0.00 0.30 0.30 99 1007.1
20260506145809 46 166 0.0 0.0 0.00 0.30 0.30 99 1007.0
20260506145306 45 260 0.9 1.7 0.00 0.30 0.30 99 1006.9
20260506144803 45 94 0.9 0.9 0.07 0.30 0.30 99 1007.0
20260506144259 45 144 0.0 0.0 0.07 0.30 0.30 99 1007.0
20260506143758 45 171 0.0 0.9 0.00 0.29 0.29 99 1007.0
20260506143254 45 155 0.0 0.9 0.05 0.29 0.29 99 1006.9
20260506142753 45 167 0.9 1.7 0.05 0.29 0.29 99 1006.9
20260506142250 45 159 0.0 0.0 0.00 0.28 0.28 99 1007.0
20260506141748 45 146 0.0 0.0 0.07 0.28 0.28 99 1006.8
20260506141246 46 167 0.0 0.0 0.12 0.28 0.28 99 1006.9
20260506140744 46 104 0.9 0.9 0.12 0.27 0.27 99 1007.0
20260506140240 46 115 0.9 0.9 0.12 0.26 0.26 99 1007.0
20260506135737 46 143 0.0 0.0 0.17 0.25 0.25 99 1007.2
20260506135233 46 148 0.0 0.9 0.19 0.24 0.24 99 1007.2
20260506134731 46 186 0.9 0.9 0.17 0.23 0.23 99 1007.1
20260506134227 46 168 0.9 0.9 0.17 0.21 0.21 99 1007.1
20260506133725 46 154 0.0 0.0 0.19 0.20 0.20 99 1006.9
20260506133221 46 166 0.0 0.0 0.14 0.18 0.18 99 1007.1
20260506132718 46 139 0.0 0.9 0.12 0.17 0.17 99 1006.8
20260506132215 46 151 0.0 0.0 0.05 0.16 0.16 99 1007.0
20260506131713 46 155 0.0 0.9 0.07 0.15 0.15 99 1006.9
20260506131208 46 137 0.0 0.9 0.12 0.15 0.15 99 1006.8
20260506130705 46 134 0.9 0.9 0.12 0.14 0.14 99 1006.8
20260506130203 46 163 0.9 0.9 0.07 0.13 0.13 98 1006.9
20260506125701 46 125 0.0 0.9 0.05 0.12 0.12 99 1006.8
20260506125158 46 126 0.9 0.9 0.05 0.12 0.12 98 1006.7
20260506124656 47 160 0.0 0.9 0.07 0.11 0.11 98 1006.6
20260506124154 46 158 0.0 0.0 0.12 0.11 0.11 99 1006.9
20260506123651 47 163 0.9 0.9 0.05 0.10 0.10 98 1006.8
20260506123150 46 152 0.0 0.0 0.07 0.09 0.09 99 1006.9
20260506122646 46 158 0.0 0.0 0.07 0.09 0.09 99 1006.9
20260506122144 46 152 0.0 0.0 0.00 0.08 0.08 99 1006.9
20260506121641 46 175 0.0 0.9 0.00 0.08 0.08 99 1006.8
20260506121137 46 161 0.0 0.0 0.00 0.08 0.08 99 1007.2
20260506120636 46 144 0.0 0.0 0.00 0.08 0.08 99 1007.0
20260506120132 46 161 0.0 0.0 0.00 0.08 0.08 99 1007.1
20260506115631 46 148 0.0 0.0 0.05 0.08 0.08 99 1007.0
20260506115129 46 150 0.0 0.0 0.05 0.08 0.08 99 1007.4
20260506114626 46 146 0.0 0.0 0.00 0.07 0.07 99 1007.0
20260506114124 46 167 0.0 0.0 0.07 0.07 0.07 99 1007.4
20260506113622 46 142 0.0 0.0 0.12 0.07 0.07 99 1007.5
20260506113119 46 152 0.0 0.0 0.05 0.06 0.06 99 1007.2
20260506112615 47 209 1.7 1.7 0.00 0.05 0.05 99 1007.4
20260506112113 46 162 0.0 0.0 0.07 0.05 0.05 99 1007.3
20260506111610 46 157 0.0 0.0 0.07 0.05 0.05 99 1007.4
20260506111108 46 157 0.0 0.0 0.00 0.04 0.04 99 1007.2
20260506110605 46 138 0.0 0.0 0.00 0.04 0.04 99 1007.0
20260506105558 47 148 0.0 0.0 0.07 0.04 0.04 99 1007.3
20260506105056 47 143 0.0 0.0 0.00 0.03 0.03 99 1007.5
20260506104554 47 141 0.0 0.0 0.00 0.03 0.03 99 1007.6
20260506104051 47 162 0.0 0.0 0.00 0.03 0.03 99 1008.0
20260506103548 47 126 0.0 0.0 0.00 0.03 0.03 99 1007.7
20260506103044 47 141 0.0 0.0 0.00 0.03 0.03 99 1007.7
20260506102543 47 167 0.0 0.0 0.00 0.03 0.03 99 1007.8
20260506102040 47 124 0.9 1.7 0.00 0.03 0.03 99 1007.6
20260506101537 47 39 1.7 1.7 0.00 0.03 0.03 99 1007.7
20260506101034 47 171 0.9 0.9 0.05 0.03 0.03 99 1007.7
20260506100532 47 149 0.0 0.0 0.05 0.03 0.03 99 1007.6
20260506100030 47 157 0.0 0.0 0.00 0.02 0.02 99 1007.2
20260506095529 47 160 0.0 0.0 0.00 0.02 0.02 99 1007.3
20260506095024 47 149 0.0 0.0 0.00 0.02 0.02 99 1007.4
20260506094522 47 162 0.0 0.0 0.00 0.02 0.02 99 1007.4
20260506094020 47 201 0.9 0.9 0.00 0.02 0.02 99 1007.6
20260506093518 48 136 0.9 0.9 0.00 0.02 0.02 99 1007.3
20260506093015 48 127 0.9 0.9 0.00 0.02 0.02 99 1007.6
20260506092513 48 134 0.9 0.9 0.00 0.02 0.02 99 1007.7
20260506092009 48 133 0.9 0.9 0.07 0.02 0.02 99 1007.8
20260506091508 48 199 0.9 0.9 0.07 0.02 0.02 99 1007.8
20260506091005 48 171 0.9 0.9 0.00 0.01 0.01 99 1007.7
20260506090503 48 179 0.9 0.9 0.00 0.01 0.01 99 1008.2
20260506085958 49 188 0.9 1.7 0.00 0.01 0.01 99 1008.0
20260506085456 48 161 0.0 0.0 0.00 0.01 0.01 99 1007.9
20260506084952 48 181 0.9 0.9 0.00 0.01 0.01 99 1007.6
20260506084449 48 143 0.0 0.0 0.00 0.01 0.01 99 1007.6
20260506083945 48 166 0.0 0.0 0.00 0.01 0.01 99 1007.9
20260506083442 48 163 0.0 0.9 0.00 0.01 0.01 99 1007.8
20260506082939 48 163 0.0 0.0 0.05 0.01 0.01 99 1007.7
20260506082437 48 172 0.0 0.0 0.05 0.01 0.01 99 1007.7
20260506081932 48 164 0.0 0.0 0.00 0.00 0.00 99 1007.5
20260506081431 48 160 0.0 0.0 0.00 0.00 0.00 99 1007.6
20260506080927 48 161 0.0 0.0 0.00 0.00 0.00 99 1007.7
20260506080424 48 162 0.0 0.0 0.00 0.00 0.00 99 1007.7
20260506073409 48 181 0.9 0.9 0.00 0.00 0.00 99 1008.0
20260506072906 48 135 0.9 1.7 0.00 0.00 0.00 99 1007.7
20260506072403 48 145 0.0 0.0 0.00 0.00 0.00 99 1008.0
20260506071900 49 130 1.7 1.7 0.00 0.00 0.00 99 1007.9
20260506071359 49 156 0.0 0.0 0.00 0.00 0.00 99 1008.5
20260506070855 49 162 0.9 1.7 0.00 0.00 0.00 99 1009.2
20260506070352 48 172 0.0 0.0 0.00 0.00 0.00 99 1008.4
20260506062329 49 150 0.0 0.0 0.00 0.00 0.00 99 1008.7
20260506061825 48 178 0.9 0.9 0.00 0.00 0.00 99 1009.3
20260506061322 49 148 0.0 0.9 0.00 0.00 0.00 98 1009.1
20260506060820 49 172 0.0 0.9 0.00 0.00 0.00 98 1009.0
20260506060318 49 166 0.0 0.0 0.00 0.00 0.00 98 1009.2
20260506051249 49 170 0.0 0.0 0.00 0.00 0.00 98 1009.6
20260506050747 49 170 0.0 0.0 0.00 0.00 0.00 98 1009.6
20260506050245 49 170 0.0 0.0 0.00 0.00 0.00 97 1009.4
20260506044735 49 167 0.0 0.0 0.00 0.00 0.00 97 1009.7
20260506044232 49 171 0.9 1.7 0.00 0.00 0.00 97 1009.5
20260506043730 49 174 0.9 0.9 0.00 0.00 0.00 97 1009.6
20260506043227 50 163 0.0 0.0 0.00 0.00 0.00 97 1009.6
20260506042726 50 130 0.0 0.0 0.00 0.00 0.00 97 1009.6
20260506042224 50 171 0.9 0.9 0.00 0.00 0.00 97 1010.0
20260506041722 50 161 0.0 0.0 0.00 0.00 0.00 97 1010.0
20260506041219 50 160 0.0 0.0 0.00 0.00 0.00 97 1009.9
20260506040716 50 169 0.9 0.9 0.00 0.00 0.00 97 1010.2
20260506040213 50 190 0.9 0.9 0.00 0.00 0.00 97 1010.2
20260506035710 50 170 0.0 0.9 0.00 0.18 0.18 97 1010.3
20260506035207 50 40 1.7 1.7 0.00 0.18 0.18 97 1010.0
20260506034703 50 169 0.9 0.9 0.07 0.18 0.18 97 1010.1
20260506034200 50 243 1.7 2.6 0.07 0.18 0.18 96 1010.1
20260506033653 50 192 0.9 0.9 0.00 0.17 0.17 96 1009.9
20260506033149 50 183 0.9 0.9 0.05 0.17 0.17 96 1010.1
20260506032646 50 203 0.9 1.7 0.05 0.17 0.17 96 1009.9
20260506032143 51 210 0.9 1.7 0.07 0.16 0.16 96 1009.8
20260506031640 51 214 1.7 1.7 0.07 0.16 0.16 95 1010.2
20260506031137 51 143 0.0 0.9 0.00 0.15 0.15 95 1009.8
20260506030636 51 301 1.7 1.7 0.05 0.15 0.15 95 1010.7
20260506030132 51 233 1.7 2.6 0.17 0.15 0.15 94 1010.0
20260506025629 52 214 1.7 1.7 0.12 0.14 0.14 93 1009.9
20260506025125 52 144 0.0 0.0 0.05 0.13 0.13 92 1010.0
20260506024623 52 245 1.7 2.6 0.00 0.12 0.12 91 1010.1
20260506024119 52 207 1.7 1.7 0.00 0.12 0.12 89 1009.5
20260506023615 53 175 0.9 0.9 0.00 0.12 0.12 89 1009.5
20260506023113 53 197 0.9 0.9 0.00 0.12 0.12 89 1009.5
20260506022610 53 181 0.0 0.9 0.00 0.12 0.12 88 1009.4
20260506022107 53 157 0.0 0.0 0.00 0.12 0.12 87 1009.3
20260506021605 53 163 0.0 0.0 0.00 0.12 0.12 87 1009.6
20260506021102 54 222 0.9 1.7 0.00 0.12 0.12 87 1009.6
20260506020559 54 151 0.0 0.0 0.00 0.12 0.12 87 1009.5
20260506020057 54 171 0.9 1.7 0.00 0.12 0.12 89 1009.4
20260506015554 54 155 0.0 0.0 0.00 0.12 0.12 90 1009.7
20260506015051 54 177 0.0 0.9 0.00 0.12 0.12 90 1009.3
20260506014548 54 173 0.0 0.0 0.00 0.12 0.12 90 1009.3
20260506014043 54 187 0.9 0.9 0.00 0.12 0.12 88 1009.3
20260506013542 54 185 0.9 0.9 0.00 0.12 0.12 88 1009.1
20260506013038 54 195 0.9 0.9 0.00 0.12 0.12 90 1009.0
20260506012535 54 164 0.0 0.0 0.00 0.12 0.12 91 1008.9
20260506012032 54 172 0.9 0.9 0.07 0.12 0.12 91 1009.2
20260506011529 54 180 0.9 0.9 0.07 0.12 0.12 90 1009.4
20260506011025 54 214 1.7 1.7 0.00 0.11 0.11 90 1009.4
20260506010525 54 211 0.9 1.7 0.00 0.11 0.11 90 1008.9
20260506010021 54 182 0.9 0.9 0.00 0.11 0.11 90 1009.1
20260506005518 54 176 0.0 0.9 0.00 0.11 0.11 89 1009.2
20260506005014 54 161 0.9 0.9 0.05 0.11 0.11 90 1009.1
20260506004512 54 172 0.9 0.9 0.12 0.11 0.11 89 1008.7
20260506004008 55 168 0.0 0.0 0.14 0.10 0.10 87 1008.7
20260506003504 55 166 0.0 0.0 0.19 0.09 0.09 86 1008.6
20260506003000 56 169 0.0 0.0 0.24 0.08 0.08 82 1008.6
20260506002456 58 174 0.0 0.0 0.12 0.06 0.06 78 1008.3
20260506001952 59 12 1.7 1.7 0.00 0.04 0.04 70 1008.5
20260506001449 60 226 1.7 2.6 0.00 0.04 0.04 67 1008.4
20260506000946 60 13 1.7 1.7 0.00 0.04 0.04 67 1007.8
20260506000445 60 244 3.5 3.5 0.00 0.04 0.04 67 1007.5
20260505235941 60 62 0.9 1.7 0.00 0.04 0.04 68 1007.5
20260505235439 60 274 2.6 5.2 0.00 0.04 0.04 69 1007.4
20260505234935 60 42 1.7 2.6 0.00 0.04 0.04 71 1007.4
20260505234433 60 74 1.7 2.6 0.00 0.04 0.04 74 1007.5
20260505233929 61 96 1.7 1.7 0.00 0.04 0.04 76 1006.9
20260505233427 61 99 0.9 1.7 0.00 0.04 0.04 78 1006.9
20260505232924 61 98 0.0 0.9 0.00 0.04 0.04 80 1006.8
20260505232422 62 48 3.5 5.2 0.00 0.04 0.04 80 1006.7
20260505231919 62 358 0.9 1.7 0.00 0.04 0.04 79 1006.6
20260505231416 62 72 1.7 1.7 0.00 0.04 0.04 79 1006.6
20260505230914 62 149 0.0 0.9 0.00 0.04 0.04 79 1006.4
20260505230412 63 120 1.7 1.7 0.00 0.04 0.04 80 1006.1
20260505225908 64 64 1.7 1.7 0.00 0.04 0.04 81 1005.9
20260505225406 65 222 0.9 1.7 0.00 0.04 0.04 78 1005.8
20260505224906 66 216 5.2 6.1 0.00 0.04 0.04 77 1006.0
20260505224403 66 223 3.5 5.2 0.00 0.04 0.04 75 1006.0
20260505223900 67 206 1.7 1.7 0.00 0.04 0.04 74 1005.6
20260505223357 67 205 1.7 2.6 0.00 0.04 0.04 72 1005.6
20260505222853 68 223 0.9 0.9 0.00 0.04 0.04 73 1005.3
20260505222349 68 165 0.9 0.9 0.00 0.04 0.04 72 1005.2
20260505221846 69 173 0.9 0.9 0.00 0.04 0.04 73 1005.3
20260505221343 69 195 0.9 0.9 0.00 0.04 0.04 73 1005.0
20260505220840 68 188 0.0 0.9 0.00 0.04 0.04 73 1005.3
20260505220337 67 229 1.7 1.7 0.00 0.04 0.04 75 1005.2
20260505215835 67 164 0.0 0.0 0.00 0.04 0.04 77 1005.2
20260505215333 67 172 0.0 0.0 0.00 0.04 0.04 78 1005.2
20260505214831 66 164 0.0 0.0 0.00 0.04 0.04 80 1005.2
20260505214328 66 147 0.0 0.0 0.00 0.04 0.04 80 1005.1
20260505213825 66 146 0.0 0.9 0.00 0.04 0.04 82 1005.1
20260505213323 65 151 0.0 0.0 0.00 0.04 0.04 82 1005.4
20260505212818 65 137 0.0 0.0 0.00 0.04 0.04 83 1005.4
20260505212316 64 137 0.0 0.0 0.00 0.04 0.04 83 1005.4